Flag for Germany Weather past 2 weeks in Erlangen, Bavaria, Germany

Now
57 °F

Sunny.


Feels Like: 57 °F
Forecast: 52 / 64 °F
Wind: 3 mph from Southeast

Location: Nuernberg

Current Time: Aug 30, 2014 at 8:26:07 AM

Latest Report: Aug 30, 2014 at 7:50 AM


Visibility: 10 mi

Pressure: 30.09 "Hg

Humidity: 94%

Dew point: 55 °F

Location of ErlangenLocation

Historic Weather in Erlangen — Graph

°F

Erlangen temperature yesterday

Maximum temperature yesterday: 73 °F (at 4:20 PM)
Minimum temperature yesterday: 57 °F (at 4:20 AM)
Average temperature yesterday: 65 °F

Past Weeks' High & Low Weather Summary

 TemperatureHumidityPressure
High73 °F (Aug 28, 4:20 PM)100% (Aug 15, 7:20 AM)30.12 "Hg (Aug 15, 7:20 AM)
Low41 °F (Aug 25, 6:20 AM)35% (Aug 22, 2:50 PM)29.68 "Hg (Aug 26, 6:50 AM)
Average58 °F76%29.98 "Hg
* Reported Aug 15 7:20 AM — Aug 30 7:20 AM, Erlangen, Weather by CustomWeather, © 2014

Note: Actual official high and low records may vary slightly from our data, if they occured in-between our weather recording intervals... More about our weather records

Advertising

Erlangen weather history for previous 24 hours

 ConditionsComfort  
Time TempWeatherWind HumidityBarometerVisibility
7:20 AM
Aug 30
54 °FFog.2 mph100%30.07 "HgN/A
6:50 AM54 °FLight fog.1 mph100%30.07 "HgN/A
6:20 AM55 °FFog.2 mph94%30.07 "HgN/A
5:50 AM55 °FFog.1 mph94%30.07 "HgN/A
5:20 AM55 °FFog.2 mph100%30.07 "HgN/A
4:50 AM54 °FFog.1 mph100%30.07 "HgN/A
4:20 AM55 °FFog.1 mph100%30.07 "HgN/A
3:50 AM57 °FFog.2 mph94%30.07 "HgN/A
3:20 AM57 °FClear.3 mph94%30.04 "Hg10 mi
2:50 AM59 °FClear.2 mph94%30.04 "Hg10 mi
2:20 AM57 °FClear.3 mph100%30.07 "Hg10 mi
1:50 AM57 °FClear.3 mph94%30.07 "Hg10 mi
1:20 AM57 °FPassing clouds.5 mph100%30.04 "HgN/A
12:50 AM57 °FPassing clouds.3 mph94%30.04 "HgN/A
12:20 AM59 °FPassing clouds.2 mph94%30.04 "HgN/A
11:50 PM
Aug 29
57 °FPassing clouds.3 mph94%30.04 "HgN/A
11:20 PM61 °FClear.1 mph88%30.04 "Hg10 mi
9:20 PM63 °FPassing clouds.1 mph83%30.04 "HgN/A
8:50 PM64 °FPartly sunny.1 mph78%30.01 "HgN/A
8:20 PM66 °FPartly sunny.1 mph73%30.01 "HgN/A
7:50 PM68 °FBroken clouds.1 mph73%30.01 "HgN/A
7:20 PM70 °FScattered clouds.3 mph64%30.01 "HgN/A
6:50 PM72 °FScattered clouds.5 mph61%30.01 "HgN/A
6:20 PM72 °FScattered clouds.8 mph61%30.01 "HgN/A
5:50 PM73 °FScattered clouds.10 mph57%30.01 "HgN/A
5:20 PM73 °FScattered clouds.7 mph57%30.01 "HgN/A
4:50 PM73 °FScattered clouds.8 mph57%30.01 "HgN/A
4:20 PM73 °FScattered clouds.7 mph57%30.04 "HgN/A
3:50 PM72 °FScattered clouds.9 mph57%30.04 "HgN/A
3:20 PM72 °FBroken clouds.8 mph61%30.04 "HgN/A
2:50 PM70 °FBroken clouds.9 mph64%30.04 "HgN/A
2:20 PM70 °FBroken clouds.9 mph64%30.04 "HgN/A
1:50 PM68 °FBroken clouds.9 mph69%30.04 "HgN/A
1:20 PM68 °FBroken clouds.9 mph69%30.04 "HgN/A
12:50 PM68 °FBroken clouds.10 mph69%30.04 "HgN/A
12:20 PM68 °FBroken clouds.10 mph69%30.04 "HgN/A
11:50 AM68 °FBroken clouds.9 mph69%30.04 "HgN/A
11:20 AM68 °FPassing clouds.7 mph69%30.04 "HgN/A
10:50 AM66 °FPassing clouds.5 mph78%30.04 "HgN/A
10:20 AM66 °FPassing clouds.5 mph73%30.04 "HgN/A
9:50 AM64 °FPassing clouds.5 mph78%30.04 "HgN/A
9:20 AM64 °FPassing clouds.5 mph78%30.04 "HgN/A
8:50 AM64 °FPassing clouds.6 mph78%30.04 "HgN/A
8:20 AM63 °FSunny.5 mph83%30.04 "Hg10 mi
Weather by CustomWeather, © 2014

See weather overviewHow to use our weather pages